Dewpoint
69 70 70 71 71 71 70 71 70 70 70 71 70 71 71 71 70 70 71 71 71 72 72 72 73 73 73 73 74 74 74 75 75 75 75 75 75 75 74 73 73 72 72 71 71 71 71 70 70 69 69 68 69 69 69 69 69 69 68 67 66 66 65 65 63 62 65 66 65 65 67 66 64 66 66 65 67 67 67 68 69 67 67 67 67
70 70 70 70 70 70 70 70 70 70 70 70 70 70 71 71 71 71 71 71 72 72 72 72 73 73 73 73 74 74 74 75 74 75 75 75 75 75 74 74 73 73 72 72 71 71 71 71 70 70 69 68 68 67 68 67 68 68 68 67 67 67 66 65 64 64 63 65 65 67 67 67 67 68 67 66 65 66 66 67 67 67 67 67 66
69 70 70 70 70 70 70 70 70 70 70 70 70 70 70 71 71 70 70 70 72 72 72 72 73 73 73 73 73 74 74 74 75 75 75 75 75 74 74 74 74 73 72 72 72 72 71 71 70 71 70 69 69 68 67 68 68 68 68 69 68 68 67 66 66 65 64 64 66 65 66 67 67 67 68 67 68 68 67 67 65 66 67 67 66
69 70 70 70 70 70 70 70 70 70 69 69 69 69 70 70 71 71 70 70 71 72 72 72 73 73 73 73 73 73 74 74 74 74 75 75 75 75 75 74 74 74 73 73 72 72 71 71 71 71 70 70 70 70 69 68 68 68 68 69 69 69 69 67 67 66 66 65 66 65 66 66 66 67 68 68 67 67 67 67 67 66 66 67 67
69 69 70 69 70 70 70 70 70 70 69 69 69 69 69 69 71 71 71 70 70 72 73 73 73 73 72 72 73 73 73 73 74 74 74 75 75 74 74 75 74 74 74 74 73 73 72 71 71 72 71 70 70 70 70 69 69 68 68 68 68 68 68 68 68 67 66 66 65 67 67 67 67 67 68 67 68 68 68 67 67 68 68 66 66
68 69 69 69 70 70 70 70 70 69 69 69 69 69 69 70 70 71 71 71 71 71 71 72 73 73 73 73 73 73 73 73 74 74 74 74 74 74 74 74 74 74 74 74 74 74 73 73 72 72 72 71 71 71 71 70 70 69 69 69 68 68 68 68 68 68 67 66 66 65 67 66 66 66 68 68 66 66 67 67 68 67 68 67 66
68 68 69 69 69 70 70 70 70 69 70 70 70 70 69 70 70 70 71 71 71 71 71 71 72 72 73 73 73 73 73 73 74 74 74 74 74 74 74 74 74 74 74 74 74 74 73 73 73 73 72 72 71 71 71 71 70 70 70 69 69 69 68 68 68 68 67 66 66 67 66 67 67 65 67 68 68 67 66 65 65 67 68 67 67
68 68 69 69 69 70 70 70 70 70 70 70 70 70 70 70 70 71 71 71 71 71 71 71 71 72 72 73 73 73 73 73 73 74 74 74 74 74 74 74 74 74 74 74 74 74 74 73 73 73 73 72 72 72 72 71 71 70 70 70 70 69 68 68 68 67 67 66 66 66 66 66 67 67 67 67 66 66 66 66 64 64 66 68 67
67 67 68 69 69 70 70 70 70 70 70 70 70 70 70 70 71 71 71 71 71 71 71 71 71 72 72 73 73 73 73 73 73 73 73 74 74 74 74 74 74 74 74 74 74 74 74 73 73 73 74 73 69 69 69 69 71 71 71 71 70 70 69 69 68 68 67 67 66 67 66 66 66 66 66 66 65 64 66 67 66 66 66 66 67
68 67 67 68 69 70 70 70 70 70 70 70 70 70 70 70 70 70 71 71 72 72 72 72 71 71 72 72 73 73 73 73 71 66 68 73 74 74 74 74 74 74 74 74 73 74 74 74 74 73 69 69 68 66 64 64 65 69 71 71 71 70 70 69 69 68 68 67 67 67 66 66 66 66 66 66 67 67 66 66 65 65 66 66 65
68 68 68 68 69 70 70 70 70 70 70 70 70 70 70 70 71 71 71 71 71 72 72 72 72 72 71 71 72 72 73 72 67 64 64 65 72 74 73 74 74 74 74 74 74 73 74 74 74 74 73 70 70 65 64 63 62 62 63 64 67 71 70 69 69 69 68 67 67 67 67 67 67 67 67 66 66 66 65 66 66 66 65 64 63
67 68 68 69 69 69 70 70 70 70 70 70 71 71 71 71 71 71 71 71 71 72 71 72 72 72 72 71 71 72 72 68 64 63 63 63 65 73 73 73 74 74 73 74 74 74 74 74 74 74 74 74 74 74 69 64 62 62 61 61 62 62 64 69 70 70 69 68 68 68 68 67 67 68 67 67 67 67 67 66 66 66 65 64 64
68 68 69 69 69 69 70 70 70 70 70 71 71 71 71 71 71 71 70 71 71 71 72 71 72 72 72 72 71 72 72 66 63 62 62 62 62 67 73 73 73 73 74 74 74 74 74 74 74 74 74 73 73 74 75 74 65 61 61 61 61 60 61 61 62 69 71 70 70 69 69 69 68 68 68 68 69 68 67 66 67 67 66 64 64
68 68 69 69 69 70 70 70 70 70 70 71 71 71 71 71 70 71 71 71 71 71 71 71 71 72 72 72 72 72 72 67 63 61 61 61 61 63 72 72 73 73 73 74 74 74 74 74 74 74 74 74 75 75 74 75 74 73 70 67 67 66 61 59 59 59 62 67 69 69 70 71 69 69 70 70 69 68 69 68 67 66 65 65 66
68 68 69 69 70 70 70 70 70 70 70 71 71 71 71 71 71 71 71 71 71 71 71 71 71 72 71 71 71 71 72 65 62 60 59 59 60 61 70 72 72 73 73 73 74 74 74 74 74 74 74 74 75 74 74 74 74 74 74 73 72 71 71 69 66 64 65 64 66 68 69 70 70 70 70 71 71 71 70 69 68 67 67 67 67
68 68 69 69 69 70 70 70 70 70 70 71 71 71 71 71 71 71 71 71 71 72 72 72 71 71 71 71 71 71 71 64 61 60 58 58 59 66 70 71 72 72 73 73 73 74 74 74 74 74 74 74 70 65 67 74 74 74 74 73 74 73 73 69 66 66 68 68 67 67 67 68 65 69 70 69 70 71 71 70 69 69 67 66 66
68 69 69 69 69 69 70 70 70 70 70 70 70 71 71 71 71 72 71 71 71 71 71 71 72 71 71 71 71 71 71 66 60 58 57 57 59 68 70 71 72 72 72 73 73 73 73 74 74 73 74 74 69 64 63 63 72 73 73 73 73 73 73 73 66 62 62 61 61 61 61 61 61 60 59 59 64 64 66 67 67 67 67 66 66
69 69 69 69 69 70 70 70 70 70 71 70 70 71 71 71 71 72 71 71 71 71 71 71 72 72 71 71 71 71 71 67 59 57 57 56 61 69 70 71 71 71 72 72 73 73 73 71 73 73 73 73 66 63 62 65 71 72 72 72 72 72 72 73 73 72 62 60 60 60 60 60 59 59 59 59 59 60 64 65 66 67 66 66 66
69 69 69 70 70 70 70 70 70 70 70 70 70 71 71 71 71 72 71 71 71 72 71 71 71 72 71 71 69 70 71 68 59 57 56 55 61 69 70 70 70 71 71 71 72 72 73 72 70 70 71 70 64 62 61 64 71 72 72 72 72 72 72 73 73 72 73 71 70 70 70 65 68 69 68 62 61 62 65 65 66 66 66 66 67
69 70 70 70 71 71 71 71 71 70 71 71 71 71 71 71 71 71 71 71 71 71 71 71 71 71 71 71 70 70 70 71 68 56 55 55 57 69 70 70 70 70 71 71 71 72 72 72 71 63 61 61 60 60 59 59 69 72 72 72 72 71 72 69 69 69 68 69 69 69 69 69 70 70 70 70 69 69 68 68 68 68 67 67 67
70 70 71 71 71 71 71 71 71 71 71 71 71 71 71 71 71 72 71 71 72 72 71 71 71 71 71 70 70 70 70 71 70 57 54 54 55 61 70 70 70 70 71 71 71 71 72 72 72 67 61 58 57 56 56 55 59 69 71 71 72 70 62 67 68 69 69 69 68 68 68 68 68 67 68 68 67 67 67 68 68 68 68 67 67
70 71 71 71 71 71 71 72 72 71 72 72 72 72 72 72 72 72 72 72 72 71 72 71 71 71 71 70 70 70 71 68 70 59 55 54 54 56 67 70 70 71 71 71 71 71 71 72 72 69 62 59 56 54 53 54 53 64 67 60 58 57 64 65 64 65 66 67 67 67 67 66 65 65 65 65 65 65 64 65 65 65 68 68 68
71 71 72 72 72 72 72 72 72 72 72 72 72 72 72 72 72 72 72 72 72 71 71 71 71 71 71 71 70 71 71 70 64 67 56 53 53 53 58 65 63 70 71 70 71 71 72 73 71 59 52 50 49 49 50 51 53 62 56 55 54 54 57 63 64 64 65 66 66 65 65 65 65 64 65 65 64 65 64 64 64 65 66 66 67
71 71 71 72 72 73 73 73 73 73 73 73 73 72 72 72 72 72 72 72 72 71 71 71 71 70 70 70 70 70 71 71 67 64 63 54 53 52 54 57 61 68 70 70 71 73 72 71 65 50 48 47 49 50 51 51 60 54 53 53 53 54 62 64 64 65 64 64 65 64 63 63 63 63 63 63 62 64 63 63 63 64 64 65 65
72 71 71 71 72 72 73 74 73 73 74 74 73 73 73 73 72 73 72 72 72 71 71 71 71 71 70 70 70 71 71 71 71 67 62 57 54 53 53 54 56 58 69 71 71 70 63 54 49 49 49 49 50 51 52 53 53 53 53 54 58 64 64 64 64 64 63 63 63 62 62 62 62 62 63 63 63 63 63 63 63 63 63 63 63
72 71 71 71 71 72 72 73 73 74 74 74 74 74 73 73 72 73 72 72 72 72 71 71 71 71 70 70 71 71 71 71 70 69 66 63 58 55 54 54 56 57 64 67 61 55 52 51 51 52 54 57 62 62 62 62 56 56 57 59 63 63 62 63 63 63 63 62 61 61 61 61 61 62 62 62 62 61 62 62 62 62 62 62 62
71 71 72 71 72 72 72 72 72 74 74 74 74 74 74 73 73 72 72 72 72 71 71 71 71 70 70 71 71 71 70 69 68 67 67 68 67 64 59 59 56 56 64 62 59 60 59 60 59 57 57 57 59 60 60 60 62 61 62 62 62 62 63 63 62 62 62 61 61 61 61 61 61 62 62 62 62 62 63 62 62 61 61 61 61
70 70 71 72 72 72 72 74 73 73 73 73 74 74 74 74 73 73 72 72 72 71 71 71 70 70 70 71 71 69 68 67 67 68 66 66 66 64 63 62 61 62 64 64 63 62 60 57 58 62 62 61 61 62 61 62 61 61 62 62 62 62 61 60 59 63 62 61 61 61 61 62 61 62 61 61 61 61 62 62 61 60 60 60 60
71 70 71 72 72 73 72 72 72 72 72 62 57 54 61 73 73 73 73 74 73 72 72 71 71 71 71 71 70 68 67 66 66 62 67 61 65 64 64 63 63 64 62 57 62 62 62 62 61 61 61 61 61 61 61 61 62 62 62 62 62 61 61 61 61 61 61 61 60 60 60 60 61 61 61 60 61 60 62 61 61 60 60 60 60
71 70 71 72 72 73 73 73 73 71 67 62 59 55 50 44 47 67 71 61 59 62 64 71 72 72 72 72 71 69 67 68 60 56 54 54 54 56 58 57 56 59 55 55 59 61 62 62 61 61 61 60 60 61 61 61 62 62 62 59 61 61 60 60 60 60 60 60 60 60 60 60 60 60 60 60 60 60 60 58 60 60 60 59 59
71 71 71 71 71 73 73 73 71 69 66 65 64 61 62 58 45 43 48 49 50 55 54 56 62 65 71 71 61 52 54 50 50 50 49 49 49 48 48 49 49 49 51 59 62 61 61 61 61 61 60 60 60 60 60 61 61 61 61 61 61 60 60 60 60 60 60 60 60 60 60 60 59 59 59 59 59 59 60 60 61 60 59 59 59
71 71 72 72 72 73 73 71 69 67 66 66 66 66 65 63 62 48 43 45 44 42 46 53 54 56 60 62 59 58 50 47 47 47 46 46 46 45 45 46 47 49 50 54 61 61 61 61 60 60 60 60 60 61 61 60 61 61 61 60 60 60 60 60 60 60 60 60 59 59 59 59 59 58 58 58 58 59 59 59 59 59 58 58 58
71 71 71 72 72 72 69 69 68 67 67 67 67 67 67 66 63 61 57 46 44 44 43 43 48 53 52 50 52 51 49 47 45 45 45 44 44 45 45 45 46 47 52 59 61 61 61 61 60 61 60 60 60 61 61 61 61 61 60 60 59 59 60 61 60 60 60 59 59 59 59 59 58 58 58 58 58 58 59 59 59 59 58 58 58
70 70 71 71 70 70 69 69 68 68 68 68 68 68 68 67 65 63 63 63 62 55 48 45 44 45 45 45 45 45 45 44 45 44 44 44 44 46 48 49 46 48 55 61 61 61 61 61 61 61 61 61 61 61 61 61 60 60 60 60 60 60 60 61 61 60 60 60 60 59 59 58 58 58 58 58 58 59 58 58 58 57 57 57 57
70 71 72 71 70 69 68 68 68 68 68 68 68 68 67 66 65 66 66 66 65 62 60 57 48 45 49 46 44 44 44 44 44 44 44 45 46 47 52 61 60 60 61 61 61 61 60 60 60 61 61 61 61 61 60 60 60 60 60 60 60 60 60 60 60 60 60 60 60 59 59 59 59 58 58 58 58 58 57 58 58 57 57 57 57
68 69 69 69 68 68 67 68 68 68 68 68 67 66 65 65 66 66 64 64 62 59 58 56 54 49 45 43 43 43 43 44 44 45 45 44 45 52 60 60 60 60 60 61 61 61 61 61 61 61 61 61 61 61 60 60 60 61 61 60 60 60 60 60 60 60 59 59 59 58 58 60 59 58 57 58 58 58 58 57 57 57 56 57 58
67 66 66 66 67 67 66 66 67 66 64 64 65 65 65 64 63 63 62 61 60 59 57 57 57 57 54 53 48 43 44 44 44 44 44 47 51 58 61 60 60 60 60 60 60 60 60 61 61 61 61 61 61 61 61 61 61 61 59 60 60 60 60 60 60 60 60 59 59 59 59 60 60 59 58 58 58 58 58 57 58 56 56 55 55
66 66 65 66 66 66 65 65 64 62 64 64 65 65 64 64 63 63 62 61 60 60 60 60 60 59 57 55 56 53 50 47 48 49 50 51 57 61 61 60 60 60 60 61 61 61 60 61 61 61 61 61 61 61 61 60 60 60 60 59 59 59 55 59 59 59 59 60 59 59 59 60 60 60 58 58 58 58 58 57 57 57 57 56 56
64 61 61 61 63 65 64 64 64 64 64 63 63 63 63 63 62 62 62 62 62 62 62 61 60 60 59 58 57 58 59 61 60 59 59 60 60 61 60 60 60 60 60 61 60 61 60 61 61 61 61 61 61 61 60 60 60 59 59 59 59 60 59 60 60 59 60 60 59 59 59 60 60 60 58 59 58 58 58 58 58 58 58 58 58
63 63 62 61 63 64 65 66 65 64 64 64 64 64 64 63 62 62 62 62 61 61 61 61 60 60 61 60 61 62 61 60 60 60 59 59 59 60 60 60 60 60 60 60 61 61 61 61 61 61 60 60 60 60 59 59 59 59 59 59 59 59 59 59 60 59 59 59 59 59 59 60 60 60 60 60 59 59 59 58 58 58 58 58 58
65 64 65 62 63 65 65 65 64 64 63 63 63 64 63 63 63 63 63 62 62 62 61 60 59 58 56 54 52 56 61 61 61 60 60 59 59 59 59 59 59 59 59 59 59 59 59 58 57 57 57 56 56 57 57 57 57 58 58 58 57 58 58 59 59 59 59 59 59 60 60 60 60 60 60 60 56 58 59 59 58 58 58 58 58
64 63 63 63 63 64 64 64 63 64 63 63 62 62 63 63 62 62 62 61 61 60 58 57 56 55 52 49 49 51 58 59 59 59 59 59 58 58 57 57 57 57 58 58 58 58 56 55 54 54 54 54 54 54 54 54 55 55 55 56 56 56 57 58 58 58 58 59 60 60 61 60 60 60 60 54 60 60 60 59 59 59 59 58 58
62 62 62 62 61 61 61 61 62 62 62 62 62 64 63 62 62 61 61 60 59 59 58 57 57 57 55 52 52 53 57 58 58 57 56 55 54 53 52 51 50 51 52 53 54 54 53 51 50 50 50 49 50 50 50 51 51 51 51 52 53 54 54 54 55 56 57 58 59 59 60 61 61 61 61 60 60 60 60 60 59 59 59 59 58
60 60 60 60 60 60 59 59 59 59 59 60 60 60 60 59 59 58 58 57 57 57 57 57 57 56 56 53 52 54 54 54 53 53 52 51 50 49 48 47 47 46 46 46 47 48 49 47 47 47 47 46 46 46 45 46 46 46 47 48 49 49 50 50 51 51 52 54 56 57 59 60 60 61 60 60 60 60 61 60 60 59 58 58 57
58 59 58 58 58 57 57 58 57 56 57 56 55 56 57 58 57 57 56 56 55 55 55 55 55 54 54 53 51 51 51 50 51 50 49 48 47 45 45 45 45 45 44 44 44 45 44 44 45 45 45 44 44 44 43 43 44 44 44 44 44 45 46 46 46 47 49 52 55 56 58 59 60 61 61 61 60 59 59 59 59 56 57 56 56
57 57 57 57 57 56 56 56 56 55 54 54 54 53 53 53 54 54 55 54 54 53 52 51 51 51 50 49 49 49 48 47 46 46 46 45 45 44 43 43 43 43 42 42 42 43 43 43 43 43 43 43 43 43 42 42 42 42 43 43 42 43 43 43 43 45 48 51 53 55 56 56 57 57 57 58 59 58 57 57 57 56 56 55 54
55 55 55 55 55 55 55 55 55 54 54 54 54 53 52 52 52 52 52 51 51 50 49 48 47 47 47 47 47 46 46 45 44 43 43 43 43 42 42 42 41 41 41 42 42 41 42 41 42 42 42 42 42 42 41 40 40 40 41 40 40 41 40 41 41 43 45 49 52 52 53 53 54 55 54 53 54 55 55 54 54 55 55 53 52
51 52 52 53 52 52 52 52 52 53 52 51 51 51 51 51 50 50 50 49 48 47 46 46 45 45 46 46 46 45 45 44 44 43 42 42 42 42 42 42 41 40 40 40 40 40 40 40 40 41 41 41 41 41 41 41 40 40 39 40 39 39 38 39 42 44 45 48 52 52 50 51 51 52 52 53 53 53 54 54 53 53 53 53 52
48 48 48 49 49 49 50 49 49 48 48 48 48 47 47 46 46 45 45 45 45 45 45 45 45 45 45 45 45 45 45 45 43 43 42 42 42 42 42 41 41 40 39 39 39 39 40 40 40 39 39 39 40 40 40 40 39 39 39 38 38 37 35 37 39 42 41 46 49 49 50 50 50 50 50 51 52 52 52 52 52 52 52 53 52
45 45 45 45 45 45 45 46 47 47 48 47 46 45 45 44 44 45 45 45 45 45 44 44 44 44 45 45 44 44 44 44 43 43 42 42 42 42 42 41 41 40 39 39 39 39 39 39 39 38 39 39 38 39 39 39 39 38 38 37 36 35 34 35 38 39 41 46 48 48 47 47 48 47 48 49 51 52 52 52 51 50 51 52 52
46 45 45 45 44 45 45 44 43 43 43 44 44 44 44 42 42 42 42 42 42 43 44 43 43 43 43 44 45 43 44 44 44 44 43 42 42 42 42 42 41 41 40 40 39 38 38 38 38 37 37 38 38 37 38 38 38 37 36 36 35 35 35 36 39 37 39 42 48 47 46 46 47 46 45 47 48 49 49 51 51 51 50 49 51